Weather in Yangon

Myanmar     16°54′28″N   96°07′40″E
temp.,
°C
wind,
m/s
gust,
m/s
humid.,
%
clouds,
%
prec.,
mm/h
press.,
hPa
HPBL,
m
12 august, fri
fri1200:30+25wsw41090100 3.0 1006417
03:30+25wsw3991100 2.6 1004363
06:30+24wsw51195100 6.9 1005579
09:30+24sw41097100 12.1 1007487
12:30+24sw4993100 16.8 1006549
15:30+24s3894100 1.1 1005406
18:30+24ssw3893100 2.5 1006345
21:30+24sse2393100 0.1 1008110
13 august, sat
sat1300:30+24sse2291100 0.1 100731
03:30+25se3686100 0.5 1005113
06:30+24sse2491100 1.0 1006132
09:30+24se3894100 1.9 1008318
12:30+26se4785100 2.6 1007545
15:30+25sse3789100 2.6 1006295
18:30+25se3690100 4.1 1007190
21:30+24se359249 0.6 1009120
14 august, sun
sun1400:30+24se249321 0.8 100881
03:30+24ese349316 0.0 100778
06:30+24ese259355 0.0 1008152
09:30+29se567364 0.1 10091033
12:30+29sse5672100 2.1 1008999
15:30+30s567192 2.0 10071188
18:30+27s4681100 3.0 1007158
21:30+26s3589100 1.5 1010152
15 august, mon
mon1500:30+26wsw2390100 1.9 101085
03:30+25w2291100 0.1 100841
06:30+25nw2291100 0.8 101070
09:30+27ne3383100 2.0 1012411
12:30+29ne2272100 2.0 1009789
15:30+28ne227598 0.1 1008485
18:30+26sse1185100 2.9 100917
21:30+26wsw2488100 0.4 101097
16 august, tue
tue1600:30+26wsw2290100 0.4 100961
03:30+25nw119296 0.6 100829
06:30+25wnw2291100 1.4 100963
09:30+26nnw3589100 2.4 1010239
12:30+26w248397 2.4 1008270
15:30+29w467154 0.0 1006945
18:30+26w488494 0.1 1006416
21:30+25w399116 0.3 1008317